Regional Weather Roundup
Issued by NWS Portland, ME

Current Version | Previous Version | Text Only | Print | Product List | Glossary Off
Versions: 1 2 3 4 5 6 7 8 9 10 11 12 13 14 15 16 17 18 19 20 21 22 23 24 25 26 27 28 29 30 31 32 33 34 35 36 37 38 39 40 41 42 43 44 45 46 47 48 49 50
000 ASUS41 KGYX 190905 RWRGYX WEATHER ROUNDUP FOR MAINE AND NEW HAMPSHIRE NATIONAL WEATHER SERVICE GRAY ME 400 AM EST TUE FEB 19 2019 MEZ002-005-006-010-012-015-018-020-021-024-026-027-029-191000- MAINE CITY SKY/WX TMP DP RH WIND PRES REMARKS PORTLAND FAIR 6 1 80 W3 30.28R SANFORD FAIR 11 3 70 W10 30.28R WCI -3 BAR HARBOR FAIR 7 -3 64 NW6 30.21R WISCASSET FAIR 11 0 61 MISG 30.27R ROCKLAND FAIR 10 0 63 NW5 30.23R FRYEBURG FAIR -1 -6 79 SW5 30.25R LEWISTONAUBURN FAIR 9 0 67 NW7 30.26R AUGUSTA FAIR 9 -2 61 W8G18 30.23R WATERVILLE FAIR 0 -6 76 CALM 30.20R BANGOR FAIR 7 -5 57 NW10 30.21R WCI -8 GREENVILLE N/A -1 -14 53 NW18G29 30.07R WCI -22 MILLINOCKET FAIR 4 -8 57 NW15G23 30.18R WCI -14 HOULTON NOT AVBL PRESQUE ISLE FAIR -2 -8 76 W8 30.14R FRENCHVILLE FAIR -1 -11 62 NW22G30 30.05R WCI -24 CARIBOU FAIR 0 -10 63 NW12G18 30.10R WCI -17 $$ NHZ002-005-008-009-011-012-014-191000- NEW HAMPSHIRE CITY SKY/WX TMP DP RH WIND PRES REMARKS PORTSMOUTH CLEAR 15 1 54 W9 30.28R ROCHESTER FAIR 13 2 61 W9 30.27R NASHUA FAIR 15 4 61 NW10 30.33R WCI 2 MANCHESTER FAIR 15 2 56 NW7 30.31R CONCORD FAIR 12 2 64 NW16G25 30.32R WCI -5 LACONIA FAIR 10 2 69 W13 30.29R WCI -5 PLYMOUTH FAIR 10 1 65 CALM 30.30R BERLIN MOCLDY 5 -2 72 VRB7 30.23R WHITEFIELD CLOUDY 6 -1 73 S5 30.29R JAFFREY FAIR 11 3 70 S5 30.26R KEENE FAIR 4 1 88 CALM 30.35R LEBANON FAIR -6 -14 68 CALM 30.34R MT WASHINGTON NOT AVBL $$ VTZ005-007-008-191000- VERMONT CITY SKY/WX TMP DP RH WIND PRES REMARKS ST JOHNSBURY N/A 4 1 88 MISG 30.33R MONTPELIER FAIR 5 -1 76 NW13G20 30.34R WCI -12 BURLINGTON FAIR 7 -3 64 N8 30.42R $$ MAZ007-012-024-CTZ003-RIZ002-NYZ038-NYZ072-191000- SOUTHERN NEW ENGLAND AND NY CITY SKY/WX TMP DP RH WIND PRES REMARKS BOSTON FAIR 19 4 51 W17G25 30.32R WCI 4 WORCESTER FAIR 11 2 67 W9 30.26R NANTUCKET FAIR 21 8 57 NW18G31 30.30R WCI 6 PROVIDENCE FAIR 19 6 57 NW12 30.36R WCI 7 HARTFORD FAIR 17 4 56 NW9 30.38R ALBANY FAIR 6 0 76 CALM 30.44R NEW YORK CITY FAIR 25 11 55 NW13 30.44S WCI 14 $$ ANZ081-ANZ082-ANZ150-NHZ014-MEZ023>029-191000- COASTAL MARINE OBSERVATIONS STATION/POSITION TIME TEMP WIND PRES WAVE AIR SEA DIR/SP/G HT/PER (UTC) (F) (DEG/KT/KT) (MB) (FT/S) MOUNT DESERT ROC 0800 15 300/ 31/ 34 1021.3R MATINICUS ROCK 0800 16 310/ 24/ 28 1021.9R ISLE OF SHOALS 0800 18 300/ 22/ 27 1024.6R JEFFREYS LEDGE 0838 40 N/A 6/ 5 $$ .............KEY.............. WCI - WIND CHILL TC - TEMPERATURE IN CELSIUS VSB - VISIBILITY IN MILES HX - HEAT INDEX FAIR- INDICATES FEW OR NO CLOUDS BELOW 12,000 FT, WITH NO SIGNIFICANT WEATHER AND/OR OBSTRUCTIONS TO VISIBILITY.

USA.gov is the U.S. government's official web portal to all federal, state and local government web resources and services.